Location: Maccacari
(45.1333°N, 11.1333°E)
Time: 07:51:53
(UTC+00:00)

Okean 2 Rocket - Pass Details

Date: 18 September 2020
Orbit: 616 x 642 km, 82.5° (Epoch: 30 October)

Event Time Altitude Azimuth Distance (km) Brightness Sun altitude
Rises 18:02:33 0° 159° (SSE) 2,933 6.2 -8.3°
Reaches altitude 10° 18:05:01 10° 148° (SSE) 2,027 5.3 -8.7°
Maximum altitude 18:08:51 28° 89° (E) 1,197 4.0 -9.4°
Drops below altitude 10° 18:12:42 10° 31° (NNE) 2,030 5.5 -10.0°
Sets 18:15:10 0° 20° (NNE) 2,939 6.5 -10.5°
